Location: ?????????
(53.2086°N, 54.0693°E)
Time: 03:37:46
(UTC+00:00)

Cosmos 304 Rocket - Pass Details

Date: 08 December 2019
Orbit: 679 x 688 km, 74.0° (Epoch: 25 January)

Event Time Altitude Azimuth Distance (km) Brightness Sun altitude
Rises 12:52:03 0° 334° (NNW) 3,058 7.1 -6.5°
Reaches altitude 10° 12:54:23 10° 336° (NNW) 2,140 6.3 -6.8°
Maximum altitude 12:59:12 77° 63° (ENE) 710 3.7 -7.4°
Drops below altitude 10° 13:04:00 10° 149° (SSE) 2,131 6.3 -8.0°
Sets 13:06:19 0° 151° (SSE) 3,044 7.1 -8.3°
